Terminal Aerodrome Forecast
Issued by NWS North Platte, NE

Home | Current Version | Previous Version | Text Only | Print | Product List | Glossary On
Versions: 1 2 3 4 5 6 7 8 9 10 11 12 13 14 15 16 17 18
000
FTUS43 KLBF 240900 AAA
TAFLBF
TAF AMD
KLBF 240905Z 2409/2506 13006KT P6SM OVC004
      TEMPO 2409/2412 2SM -DZ BR OVC002
     FM241200 14005KT 4SM -DZ BR OVC002
     FM241600 16006KT 5SM BR OVC005
     FM241800 17008KT P6SM BKN035
     FM250200 15006KT P6SM BKN025=

USA.gov is the U.S. government's official web portal to all federal, state and local government web resources and services.